World > North America > United States > Alabama

Adamsville, Alabama Regional Weather

Lat: 33.60N, Lon: 86.96W
Wx Zone: ALZ024Web Search

If you are on your PC, you can easily pass this page to your phone by scanning the QR Code near the bottom with your camera.

Feedback


°F Click to change Adamsville hourly weather to Imperial units.Click to change Adamsville hourly weather to Metric units. °C
Adamsville Weather Map
UTC Time: 5/16/2021, 19:22
Your Time:

Adamsville, AL Regional Weather

Expires:202105162000;;216929
ASUS44 KBMX 161910
RWRAL 
             
ALABAMA REGIONAL WEATHER ROUNDUP
NATIONAL WEATHER SERVICE BIRMINGHAM AL
200 PM CDT SUN MAY 16 2021

NOTE: "FAIR" INDICATES FEW OR NO CLOUDS BELOW 12,000 FEET
WITH NO SIGNIFICANT WEATHER AND/OR OBSTRUCTIONS TO VISIBILITY.

THE REMARK "TC" DENOTES TEMPERATURE IN DEGREES CELSIUS.


ALZ015-024>026-033>036-041>044-162000-
CENTRAL ALABAMA
  
CITY           SKY/WX    TMP DP  RH WIND       PRES   REMARKS
BIRMINGHAM     MOSUNNY   80  49  33 VRB3      30.21F                  
MONTGOMERY     MOSUNNY   82  52  35 SE9       30.21F                  
SHELBY CO ARPT MOSUNNY   77  48  35 VRB6      30.20F                  
MAXWELL AFB    MOSUNNY   80  50  35 S8        30.18F                  
GREENVILLE     FAIR      80  48  32 VRB5      30.19F                  
SELMA          FAIR      81  48  32 SE7G13    30.19F                  
PRATTVILLE     FAIR      79  50  36 S5        30.20S                  
BESSEMER       FAIR      77  51  40 VRB6      30.21F                  
TALLADEGA      NOT AVBL                                               
PELL CITY      SUNNY     79  52  38 SW7       30.21F                  
SYLACAUGA      FAIR      78  51  40 SW6       30.22F                  
$$
 

SKY/WX - Weather  TMP - Temperature  DP - Dew Point  RH - Relative Humidity
WIND - Wind Direction/Speed PRES - Barometric Pressure VSB - Visibility
WCI - Wind Chill Index E13G22 Wind - East Wind 13 mph/Gusts of 22 mph